Norwegian Spirit — C6TQ6 — position and weather

sailwx.info

Track history (hours):
 
Tides and Currents Weather Stations Pressure Air Temp Water Temp Dewpoint Dewpoint Depression Visibility Wind Speed Wind Dir Waves Ship Positions

Norwegian Spirit

Operator: Norwegian Cruise Line

Last reported at 2017-Apr-25 21:00 UTC. Time now 2017-Apr-26 02:13 UTC.
Position N 41°12' E 018°30'.

Type: Passenger vessel. MMSI: 311746000.

Wind from 190 at 27 knots

Barometer 1019.0 mb
Air temperature 16.0 ° C
Dewpoint 12.6 ° C
Water temperature 16.0 ° C

Date/timePositionNaut miles runAvg speedWind from/ knotsBaromVisibWave heightAir tempDewpointWater temp
2017-Apr-25 21:00N 41°12' E 018°30'1918.6 190 / 271019.0 16.012.616.0
2017-Apr-25 20:00N 41°30' E 018°24'126 5.5 180 / 251019.0 16.012.616.0
2017-Apr-24 21:00N 42°36' E 016°00'1110.7 110 / 181019.0 16.012.616.0
2017-Apr-24 20:00N 42°42' E 015°48'4410.3 120 / 191019.0 16.012.616.0
2017-Apr-24 15:47N 43°07' E 014°59'411.0
2017-Apr-24 15:26N 43°10' E 014°56'511.1
2017-Apr-24 15:00N 43°14' E 014°52'611.0
2017-Apr-24 14:30N 43°18' E 014°47'52 9.5
2017-Apr-24 09:00N 43°48' E 013°48'1817.7 160 / 161020.0 15.011.615.0
2017-Apr-24 08:00N 44°00' E 013°30'16 9.7 190 / 141020.0 15.011.615.0
2017-Apr-24 06:22N 44°11' E 013°15'410.9
2017-Apr-24 06:00N 44°14' E 013°11'611.0
2017-Apr-24 05:30N 44°20' E 013°08'611.2
2017-Apr-24 05:00N 44°25' E 013°06'611.0
2017-Apr-24 04:30N 44°30' E 013°04'510.8
2017-Apr-24 04:00N 44°35' E 013°02'611.0
2017-Apr-24 03:30N 44°41' E 012°60'511.0
2017-Apr-24 03:00N 44°46' E 012°57'510.8
2017-Apr-24 02:30N 44°51' E 012°54'510.7
2017-Apr-24 02:00N 44°55' E 012°50'510.6
2017-Apr-24 01:30N 44°60' E 012°46'510.6
2017-Apr-24 01:00N 45°04' E 012°42'510.6
2017-Apr-24 00:30N 45°09' E 012°38'510.5
2017-Apr-24 00:00N 45°11' E 012°32'4 7.8
2017-Apr-23 23:30N 45°15' E 012°30'4 7.5
2017-Apr-23 23:00N 45°19' E 012°30'5 9.4
2017-Apr-23 22:30N 45°24' E 012°29'5 9.6
2017-Apr-23 22:00N 45°26' E 012°23'3 5.4
2017-Apr-23 21:30N 45°26' E 012°20'1 2.1
2017-Apr-23 21:00N 45°26' E 012°18'0 0.1
2017-Apr-23 20:29N 45°26' E 012°18'0 0.0
2017-Apr-23 19:58N 45°26' E 012°18'0 0.0
2017-Apr-23 19:28N 45°26' E 012°18'0 0.0
2017-Apr-23 18:58N 45°26' E 012°18'0 0.0
2017-Apr-23 18:28N 45°26' E 012°18'0 0.0
2017-Apr-23 17:58N 45°26' E 012°18'0 0.0
2017-Apr-23 17:28N 45°26' E 012°18'0 0.0
2017-Apr-23 16:58N 45°26' E 012°18'0 0.0
2017-Apr-23 16:28N 45°26' E 012°18'0 0.0
2017-Apr-23 15:58N 45°26' E 012°18'0 0.0
2017-Apr-23 15:28N 45°26' E 012°18'0 0.0
2017-Apr-23 14:58N 45°26' E 012°18'0 0.0
2017-Apr-23 13:58N 45°26' E 012°18'0 0.0
2017-Apr-23 13:28N 45°26' E 012°18'0 0.0
2017-Apr-23 12:58N 45°26' E 012°18'0 0.0
2017-Apr-23 12:28N 45°26' E 012°18'0 0.0
2017-Apr-23 11:58N 45°26' E 012°18'0 0.0
2017-Apr-23 11:29N 45°26' E 012°18'0 0.0
2017-Apr-23 10:58N 45°26' E 012°18'0 0.0
2017-Apr-23 10:28N 45°26' E 012°18'0 0.0
2017-Apr-23 09:58N 45°26' E 012°18'0 0.0
2017-Apr-23 09:28N 45°26' E 012°18'0 0.0
2017-Apr-23 08:58N 45°26' E 012°18'0 0.0
2017-Apr-23 08:28N 45°26' E 012°18'0 0.0
2017-Apr-23 07:58N 45°26' E 012°18'0 0.0
2017-Apr-23 07:28N 45°26' E 012°18'0 0.0
2017-Apr-23 06:58N 45°26' E 012°18'0 0.0
2017-Apr-23 06:28N 45°26' E 012°18'0 0.0
2017-Apr-23 05:55N 45°26' E 012°18'0 0.0
2017-Apr-23 05:28N 45°26' E 012°18'0 0.0
2017-Apr-23 04:58N 45°26' E 012°18'0 0.0
2017-Apr-23 04:28N 45°26' E 012°18'0 1.0
2017-Apr-23 04:00N 45°26' E 012°18'3 5.5
2017-Apr-23 03:30N 45°25' E 012°22'4 7.6
2017-Apr-23 03:00N 45°25' E 012°28'815.1
2017-Apr-23 02:30N 45°18' E 012°32'917.2
2017-Apr-23 02:00N 45°12' E 012°41'816.9
2017-Apr-23 01:30N 45°06' E 012°50'917.9
2017-Apr-23 01:01N 44°58' E 012°54'917.8
2017-Apr-23 00:31N 44°49' E 012°59'917.9
2017-Apr-23 00:00N 44°41' E 013°04'918.1
2017-Apr-22 23:30N 44°33' E 013°08'918.0
2017-Apr-22 23:00N 44°24' E 013°12'917.4
2017-Apr-22 22:30N 44°17' E 013°18'918.0
2017-Apr-22 22:00N 44°11' E 013°28'918.6
2017-Apr-22 21:30N 44°05' E 013°38'1121.2
2017-Apr-22 21:01N 43°59' E 013°50'1121.2
2017-Apr-22 20:30N 43°53' E 014°02'1021.0
2017-Apr-22 20:00N 43°48' E 014°15'2126.7
2017-Apr-22 20:00N 43°48' E 014°12'163 7.1 180 / 161018.0 14.010.520.0
2017-Apr-21 21:00N 42°24' E 017°24'9 8.9 030 / 161025.0 12.010.216.0
2017-Apr-21 20:00N 42°24' E 017°36'144 6.3 020 / 161025.0 12.0 8.316.0
2017-Apr-20 21:00N 40°12' E 018°54'1918.6 320 / 221020.0 13.0 9.417.0
2017-Apr-20 20:00N 39°54' E 019°00'40616.9 320 / 291020.0 13.011.217.0
2017-Apr-19 20:00N 36°06' E 026°06'206 9.5 120 / 191020.010.8 15.0-14.4
2017-Apr-18 22:17N 35°29' E 030°15'5022.0
2017-Apr-18 20:00N 35°00' E 031°06'1615.9 270 / 151017.0 18.014.820.0
2017-Apr-18 19:00N 34°54' E 031°24'6423.0 290 / 141017.0 18.014.820.0
2017-Apr-18 16:12N 34°27' E 032°34'820.3
2017-Apr-18 15:49N 34°26' E 032°44'820.7
2017-Apr-18 15:28N 34°27' E 032°53'1021.2
2017-Apr-18 14:59N 34°30' E 033°04'912.5
2017-Apr-18 14:14N 34°39' E 033°01'0 0.0
2017-Apr-18 06:48N 34°39' E 033°01'0 0.0
2017-Apr-18 06:30N 34°39' E 033°01'0 0.0
2017-Apr-18 05:55N 34°39' E 033°01'0 0.0
2017-Apr-18 05:20N 34°39' E 033°01'0 0.0
2017-Apr-18 05:00N 34°39' E 033°01'1 2.2
2017-Apr-18 04:23N 34°39' E 033°03'3 6.4
2017-Apr-18 03:55N 34°37' E 033°06'1612.2
2017-Apr-18 02:35N 34°24' E 033°18'613.3
2017-Apr-18 02:07N 34°18' E 033°20'2813.3
2017-Apr-17 23:59N 33°53' E 033°35'3613.3
2017-Apr-17 21:17N 33°20' E 033°52'413.8
2017-Apr-17 21:00N 33°16' E 033°54'714.3
2017-Apr-17 20:30N 33°10' E 033°58'713.7
2017-Apr-17 20:00N 33°04' E 034°02'713.3
2017-Apr-17 19:30N 33°02' E 034°10'713.4
2017-Apr-17 18:58N 32°60' E 034°18'613.7
2017-Apr-17 18:30N 32°58' E 034°25'713.7
2017-Apr-17 18:00N 32°57' E 034°33'713.6
2017-Apr-17 17:30N 32°56' E 034°41'713.5
2017-Apr-17 17:00N 32°55' E 034°49'713.4
2017-Apr-17 16:30N 32°53' E 034°57'510.1
2017-Apr-17 16:01N 32°50' E 035°01'1 1.5
2017-Apr-17 15:28N 32°49' E 035°00'0 0.0
2017-Apr-17 14:58N 32°49' E 035°00'0 0.0
2017-Apr-17 14:28N 32°49' E 035°00'0 0.0
2017-Apr-17 13:28N 32°49' E 035°00'0 0.0
2017-Apr-17 12:58N 32°49' E 035°00'0 0.0
2017-Apr-17 12:28N 32°49' E 035°00'0 0.0
2017-Apr-17 11:37N 32°49' E 035°00'0 0.0
2017-Apr-17 11:28N 32°49' E 035°00'0 0.0
2017-Apr-17 10:58N 32°49' E 035°00'0 0.0
2017-Apr-17 10:16N 32°49' E 035°00'0 0.0
2017-Apr-17 09:49N 32°49' E 035°00'0 0.0
2017-Apr-17 09:28N 32°49' E 035°00'0 0.0
2017-Apr-17 08:58N 32°49' E 035°00'0 0.0
2017-Apr-17 08:28N 32°49' E 035°00'0 0.0
2017-Apr-17 07:52N 32°49' E 035°00'0 0.0
2017-Apr-17 07:10N 32°49' E 035°00'0 0.0
2017-Apr-17 06:58N 32°49' E 035°00'0 0.0
2017-Apr-17 06:28N 32°49' E 035°00'0 0.0
2017-Apr-17 05:52N 32°49' E 035°00'0 0.0
2017-Apr-17 05:16N 32°49' E 035°00'0 0.0
2017-Apr-17 04:55N 32°49' E 035°00'0 0.0
2017-Apr-17 04:28N 32°49' E 035°00'0 0.0
2017-Apr-17 03:58N 32°49' E 035°00'0 0.0
2017-Apr-17 03:28N 32°49' E 035°00'0 0.0
2017-Apr-17 02:52N 32°49' E 035°00'0 0.0
2017-Apr-17 02:25N 32°49' E 035°00'0 0.0
2017-Apr-17 01:52N 32°49' E 035°00'0 0.0
2017-Apr-17 01:28N 32°49' E 035°00'0 0.0
2017-Apr-17 00:58N 32°49' E 035°00'0 0.0
2017-Apr-17 00:22N 32°49' E 035°00'0 0.0
2017-Apr-16 23:40N 32°49' E 035°00'0 0.0
2017-Apr-16 23:28N 32°49' E 035°00'0 0.0
2017-Apr-16 22:58N 32°49' E 035°00'0 0.0
2017-Apr-16 22:22N 32°49' E 035°00'0 0.0
2017-Apr-16 21:55N 32°49' E 035°00'0 0.0
2017-Apr-16 21:28N 32°49' E 035°00'0 0.0
2017-Apr-16 20:58N 32°49' E 035°00'0 0.0
2017-Apr-16 20:28N 32°49' E 035°00'0 0.0
2017-Apr-16 19:55N 32°49' E 035°00'0 0.0
2017-Apr-16 19:28N 32°49' E 035°00'0 0.0
2017-Apr-16 18:58N 32°49' E 035°00'0 0.0
2017-Apr-16 18:25N 32°49' E 035°00'0 0.0
2017-Apr-16 17:46N 32°49' E 035°00'0 0.0
2017-Apr-16 17:28N 32°49' E 035°00'0 0.0
2017-Apr-16 16:55N 32°49' E 035°00'0 0.0
2017-Apr-16 16:28N 32°49' E 035°00'0 0.0
2017-Apr-16 15:58N 32°49' E 035°00'0 0.0
2017-Apr-16 15:28N 32°49' E 035°00'0 0.0
2017-Apr-16 14:28N 32°49' E 035°00'0 0.0
2017-Apr-16 13:25N 32°49' E 035°00'0 0.0
2017-Apr-16 12:58N 32°49' E 035°00'0 0.0
2017-Apr-16 12:28N 32°49' E 035°00'0 0.0
2017-Apr-16 11:58N 32°49' E 035°00'0 0.0
2017-Apr-16 11:28N 32°49' E 035°00'0 0.0
2017-Apr-16 10:52N 32°49' E 035°00'0 0.0
2017-Apr-16 10:28N 32°49' E 035°00'0 0.0
2017-Apr-16 09:43N 32°49' E 035°00'0 0.0
2017-Apr-16 09:25N 32°49' E 035°00'0 0.0
2017-Apr-16 08:55N 32°49' E 035°00'0 0.0
2017-Apr-16 08:28N 32°49' E 035°00'0 0.0
2017-Apr-16 07:55N 32°49' E 035°00'0 0.0
2017-Apr-16 07:28N 32°49' E 035°00'0 0.0
2017-Apr-16 06:52N 32°49' E 035°00'0 0.0
2017-Apr-16 06:28N 32°49' E 035°00'0 0.0
2017-Apr-16 05:55N 32°49' E 035°00'0 0.0
2017-Apr-16 05:28N 32°49' E 035°00'0 0.0
2017-Apr-16 04:58N 32°49' E 035°00'0 0.0
2017-Apr-16 04:25N 32°49' E 035°00'0 0.0
2017-Apr-16 03:55N 32°49' E 035°00'0 0.0
2017-Apr-16 03:28N 32°49' E 035°00'0 0.0
2017-Apr-16 02:58N 32°49' E 035°00'0 0.1
2017-Apr-16 02:30N 32°49' E 035°00'2 3.5
2017-Apr-16 02:00N 32°51' E 035°00'612.0
2017-Apr-16 01:31N 32°54' E 034°54'714.3
2017-Apr-16 01:00N 32°56' E 034°46'  
Track history (hours):
 
Tides and Currents Weather Stations Pressure Air Temp Water Temp Dewpoint Dewpoint Depression Visibility Wind Speed Wind Dir Waves Ship Positions

Norwegian Spirit

Operator: Norwegian Cruise Line

Last reported at 2017-Apr-25 21:00 UTC. Time now 2017-Apr-26 02:13 UTC.
Position N 41°12' E 018°30'.

Type: Passenger vessel. MMSI: 311746000.

Wind from 190 at 27 knots

Barometer 1019.0 mb
Air temperature 16.0 ° C
Dewpoint 12.6 ° C
Water temperature 16.0 ° C

Date/timePositionNaut miles runAvg speedWind from/ knotsBaromVisibWave heightAir tempDewpointWater temp
2017-Apr-25 21:00N 41°12' E 018°30'1918.6 190 / 271019.0 16.012.616.0
2017-Apr-25 20:00N 41°30' E 018°24'126 5.5 180 / 251019.0 16.012.616.0
2017-Apr-24 21:00N 42°36' E 016°00'1110.7 110 / 181019.0 16.012.616.0
2017-Apr-24 20:00N 42°42' E 015°48'4410.3 120 / 191019.0 16.012.616.0
2017-Apr-24 15:47N 43°07' E 014°59'411.0
2017-Apr-24 15:26N 43°10' E 014°56'511.1
2017-Apr-24 15:00N 43°14' E 014°52'611.0
2017-Apr-24 14:30N 43°18' E 014°47'52 9.5
2017-Apr-24 09:00N 43°48' E 013°48'1817.7 160 / 161020.0 15.011.615.0
2017-Apr-24 08:00N 44°00' E 013°30'16 9.7 190 / 141020.0 15.011.615.0
2017-Apr-24 06:22N 44°11' E 013°15'410.9
2017-Apr-24 06:00N 44°14' E 013°11'611.0
2017-Apr-24 05:30N 44°20' E 013°08'611.2
2017-Apr-24 05:00N 44°25' E 013°06'611.0
2017-Apr-24 04:30N 44°30' E 013°04'510.8
2017-Apr-24 04:00N 44°35' E 013°02'611.0
2017-Apr-24 03:30N 44°41' E 012°60'511.0
2017-Apr-24 03:00N 44°46' E 012°57'510.8
2017-Apr-24 02:30N 44°51' E 012°54'510.7
2017-Apr-24 02:00N 44°55' E 012°50'510.6
2017-Apr-24 01:30N 44°60' E 012°46'510.6
2017-Apr-24 01:00N 45°04' E 012°42'510.6
2017-Apr-24 00:30N 45°09' E 012°38'510.5
2017-Apr-24 00:00N 45°11' E 012°32'4 7.8
2017-Apr-23 23:30N 45°15' E 012°30'4 7.5
2017-Apr-23 23:00N 45°19' E 012°30'5 9.4
2017-Apr-23 22:30N 45°24' E 012°29'5 9.6
2017-Apr-23 22:00N 45°26' E 012°23'3 5.4
2017-Apr-23 21:30N 45°26' E 012°20'1 2.1
2017-Apr-23 21:00N 45°26' E 012°18'0 0.1
2017-Apr-23 20:29N 45°26' E 012°18'0 0.0
2017-Apr-23 19:58N 45°26' E 012°18'0 0.0
2017-Apr-23 19:28N 45°26' E 012°18'0 0.0
2017-Apr-23 18:58N 45°26' E 012°18'0 0.0
2017-Apr-23 18:28N 45°26' E 012°18'0 0.0
2017-Apr-23 17:58N 45°26' E 012°18'0 0.0
2017-Apr-23 17:28N 45°26' E 012°18'0 0.0
2017-Apr-23 16:58N 45°26' E 012°18'0 0.0
2017-Apr-23 16:28N 45°26' E 012°18'0 0.0
2017-Apr-23 15:58N 45°26' E 012°18'0 0.0
2017-Apr-23 15:28N 45°26' E 012°18'0 0.0
2017-Apr-23 14:58N 45°26' E 012°18'0 0.0
2017-Apr-23 13:58N 45°26' E 012°18'0 0.0
2017-Apr-23 13:28N 45°26' E 012°18'0 0.0
2017-Apr-23 12:58N 45°26' E 012°18'0 0.0
2017-Apr-23 12:28N 45°26' E 012°18'0 0.0
2017-Apr-23 11:58N 45°26' E 012°18'0 0.0
2017-Apr-23 11:29N 45°26' E 012°18'0 0.0
2017-Apr-23 10:58N 45°26' E 012°18'0 0.0
2017-Apr-23 10:28N 45°26' E 012°18'0 0.0
2017-Apr-23 09:58N 45°26' E 012°18'0 0.0
2017-Apr-23 09:28N 45°26' E 012°18'0 0.0
2017-Apr-23 08:58N 45°26' E 012°18'0 0.0
2017-Apr-23 08:28N 45°26' E 012°18'0 0.0
2017-Apr-23 07:58N 45°26' E 012°18'0 0.0
2017-Apr-23 07:28N 45°26' E 012°18'0 0.0
2017-Apr-23 06:58N 45°26' E 012°18'0 0.0
2017-Apr-23 06:28N 45°26' E 012°18'0 0.0
2017-Apr-23 05:55N 45°26' E 012°18'0 0.0
2017-Apr-23 05:28N 45°26' E 012°18'0 0.0
2017-Apr-23 04:58N 45°26' E 012°18'0 0.0
2017-Apr-23 04:28N 45°26' E 012°18'0 1.0
2017-Apr-23 04:00N 45°26' E 012°18'3 5.5
2017-Apr-23 03:30N 45°25' E 012°22'4 7.6
2017-Apr-23 03:00N 45°25' E 012°28'815.1
2017-Apr-23 02:30N 45°18' E 012°32'917.2
2017-Apr-23 02:00N 45°12' E 012°41'816.9
2017-Apr-23 01:30N 45°06' E 012°50'917.9
2017-Apr-23 01:01N 44°58' E 012°54'917.8
2017-Apr-23 00:31N 44°49' E 012°59'917.9
2017-Apr-23 00:00N 44°41' E 013°04'918.1
2017-Apr-22 23:30N 44°33' E 013°08'918.0
2017-Apr-22 23:00N 44°24' E 013°12'917.4
2017-Apr-22 22:30N 44°17' E 013°18'918.0
2017-Apr-22 22:00N 44°11' E 013°28'918.6
2017-Apr-22 21:30N 44°05' E 013°38'1121.2
2017-Apr-22 21:01N 43°59' E 013°50'1121.2
2017-Apr-22 20:30N 43°53' E 014°02'1021.0
2017-Apr-22 20:00N 43°48' E 014°15'2126.7
2017-Apr-22 20:00N 43°48' E 014°12'163 7.1 180 / 161018.0 14.010.520.0
2017-Apr-21 21:00N 42°24' E 017°24'9 8.9 030 / 161025.0 12.010.216.0
2017-Apr-21 20:00N 42°24' E 017°36'144 6.3 020 / 161025.0 12.0 8.316.0
2017-Apr-20 21:00N 40°12' E 018°54'1918.6 320 / 221020.0 13.0 9.417.0
2017-Apr-20 20:00N 39°54' E 019°00'40616.9 320 / 291020.0 13.011.217.0
2017-Apr-19 20:00N 36°06' E 026°06'206 9.5 120 / 191020.010.8 15.0-14.4
2017-Apr-18 22:17N 35°29' E 030°15'5022.0
2017-Apr-18 20:00N 35°00' E 031°06'1615.9 270 / 151017.0 18.014.820.0
2017-Apr-18 19:00N 34°54' E 031°24'6423.0 290 / 141017.0 18.014.820.0
2017-Apr-18 16:12N 34°27' E 032°34'820.3
2017-Apr-18 15:49N 34°26' E 032°44'820.7
2017-Apr-18 15:28N 34°27' E 032°53'1021.2
2017-Apr-18 14:59N 34°30' E 033°04'912.5
2017-Apr-18 14:14N 34°39' E 033°01'0 0.0
2017-Apr-18 06:48N 34°39' E 033°01'0 0.0
2017-Apr-18 06:30N 34°39' E 033°01'0 0.0
2017-Apr-18 05:55N 34°39' E 033°01'0 0.0
2017-Apr-18 05:20N 34°39' E 033°01'0 0.0
2017-Apr-18 05:00N 34°39' E 033°01'1 2.2
2017-Apr-18 04:23N 34°39' E 033°03'3 6.4
2017-Apr-18 03:55N 34°37' E 033°06'1612.2
2017-Apr-18 02:35N 34°24' E 033°18'613.3
2017-Apr-18 02:07N 34°18' E 033°20'2813.3
2017-Apr-17 23:59N 33°53' E 033°35'3613.3
2017-Apr-17 21:17N 33°20' E 033°52'413.8
2017-Apr-17 21:00N 33°16' E 033°54'714.3
2017-Apr-17 20:30N 33°10' E 033°58'713.7
2017-Apr-17 20:00N 33°04' E 034°02'713.3
2017-Apr-17 19:30N 33°02' E 034°10'713.4
2017-Apr-17 18:58N 32°60' E 034°18'613.7
2017-Apr-17 18:30N 32°58' E 034°25'713.7
2017-Apr-17 18:00N 32°57' E 034°33'713.6
2017-Apr-17 17:30N 32°56' E 034°41'713.5
2017-Apr-17 17:00N 32°55' E 034°49'713.4
2017-Apr-17 16:30N 32°53' E 034°57'510.1
2017-Apr-17 16:01N 32°50' E 035°01'1 1.5
2017-Apr-17 15:28N 32°49' E 035°00'0 0.0
2017-Apr-17 14:58N 32°49' E 035°00'0 0.0
2017-Apr-17 14:28N 32°49' E 035°00'0 0.0
2017-Apr-17 13:28N 32°49' E 035°00'0 0.0
2017-Apr-17 12:58N 32°49' E 035°00'0 0.0
2017-Apr-17 12:28N 32°49' E 035°00'0 0.0
2017-Apr-17 11:37N 32°49' E 035°00'0 0.0
2017-Apr-17 11:28N 32°49' E 035°00'0 0.0
2017-Apr-17 10:58N 32°49' E 035°00'0 0.0
2017-Apr-17 10:16N 32°49' E 035°00'0 0.0
2017-Apr-17 09:49N 32°49' E 035°00'0 0.0
2017-Apr-17 09:28N 32°49' E 035°00'0 0.0
2017-Apr-17 08:58N 32°49' E 035°00'0 0.0
2017-Apr-17 08:28N 32°49' E 035°00'0 0.0
2017-Apr-17 07:52N 32°49' E 035°00'0 0.0
2017-Apr-17 07:10N 32°49' E 035°00'0 0.0
2017-Apr-17 06:58N 32°49' E 035°00'0 0.0
2017-Apr-17 06:28N 32°49' E 035°00'0 0.0
2017-Apr-17 05:52N 32°49' E 035°00'0 0.0
2017-Apr-17 05:16N 32°49' E 035°00'0 0.0
2017-Apr-17 04:55N 32°49' E 035°00'0 0.0
2017-Apr-17 04:28N 32°49' E 035°00'0 0.0
2017-Apr-17 03:58N 32°49' E 035°00'0 0.0
2017-Apr-17 03:28N 32°49' E 035°00'0 0.0
2017-Apr-17 02:52N 32°49' E 035°00'0 0.0
2017-Apr-17 02:25N 32°49' E 035°00'0 0.0
2017-Apr-17 01:52N 32°49' E 035°00'0 0.0
2017-Apr-17 01:28N 32°49' E 035°00'0 0.0
2017-Apr-17 00:58N 32°49' E 035°00'0 0.0
2017-Apr-17 00:22N 32°49' E 035°00'0 0.0
2017-Apr-16 23:40N 32°49' E 035°00'0 0.0
2017-Apr-16 23:28N 32°49' E 035°00'0 0.0
2017-Apr-16 22:58N 32°49' E 035°00'0 0.0
2017-Apr-16 22:22N 32°49' E 035°00'0 0.0
2017-Apr-16 21:55N 32°49' E 035°00'0 0.0
2017-Apr-16 21:28N 32°49' E 035°00'0 0.0
2017-Apr-16 20:58N 32°49' E 035°00'0 0.0
2017-Apr-16 20:28N 32°49' E 035°00'0 0.0
2017-Apr-16 19:55N 32°49' E 035°00'0 0.0
2017-Apr-16 19:28N 32°49' E 035°00'0 0.0
2017-Apr-16 18:58N 32°49' E 035°00'0 0.0
2017-Apr-16 18:25N 32°49' E 035°00'0 0.0
2017-Apr-16 17:46N 32°49' E 035°00'0 0.0
2017-Apr-16 17:28N 32°49' E 035°00'0 0.0
2017-Apr-16 16:55N 32°49' E 035°00'0 0.0
2017-Apr-16 16:28N 32°49' E 035°00'0 0.0
2017-Apr-16 15:58N 32°49' E 035°00'0 0.0
2017-Apr-16 15:28N 32°49' E 035°00'0 0.0
2017-Apr-16 14:28N 32°49' E 035°00'0 0.0
2017-Apr-16 13:25N 32°49' E 035°00'0 0.0
2017-Apr-16 12:58N 32°49' E 035°00'0 0.0
2017-Apr-16 12:28N 32°49' E 035°00'0 0.0
2017-Apr-16 11:58N 32°49' E 035°00'0 0.0
2017-Apr-16 11:28N 32°49' E 035°00'0 0.0
2017-Apr-16 10:52N 32°49' E 035°00'0 0.0
2017-Apr-16 10:28N 32°49' E 035°00'0 0.0
2017-Apr-16 09:43N 32°49' E 035°00'0 0.0
2017-Apr-16 09:25N 32°49' E 035°00'0 0.0
2017-Apr-16 08:55N 32°49' E 035°00'0 0.0
2017-Apr-16 08:28N 32°49' E 035°00'0 0.0
2017-Apr-16 07:55N 32°49' E 035°00'0 0.0
2017-Apr-16 07:28N 32°49' E 035°00'0 0.0
2017-Apr-16 06:52N 32°49' E 035°00'0 0.0
2017-Apr-16 06:28N 32°49' E 035°00'0 0.0
2017-Apr-16 05:55N 32°49' E 035°00'0 0.0
2017-Apr-16 05:28N 32°49' E 035°00'0 0.0
2017-Apr-16 04:58N 32°49' E 035°00'0 0.0
2017-Apr-16 04:25N 32°49' E 035°00'0 0.0
2017-Apr-16 03:55N 32°49' E 035°00'0 0.0
2017-Apr-16 03:28N 32°49' E 035°00'0 0.0
2017-Apr-16 02:58N 32°49' E 035°00'0 0.1
2017-Apr-16 02:30N 32°49' E 035°00'2 3.5
2017-Apr-16 02:00N 32°51' E 035°00'612.0
2017-Apr-16 01:31N 32°54' E 034°54'714.3
2017-Apr-16 01:00N 32°56' E 034°46'  

Dump ship's entire track history